sat.trackr.live / text

‹ back to catalog

STARLINK-3209

NORAD 49752 · 2021-115AE

PAYLOAD ACTIVE UNKNOWN

§ Identity

Operator
Country
US
Launch date
2021-12-02
Launch site
AFETR
Launch vehicle
Mass (kg)
RCS (m²)

Purposes: comms

External: N2YO · Heavens-Above · Gunter

§ Orbital elements

Epoch: 2026-05-25T01:14:37.320576Z

Period
95.44 min
Inclination
53.2136°
Eccentricity
0.0001346
Mean motion
15.08834365 rev/d
Perigee alt
538.8 km
Apogee alt
540.7 km
Semi-major
6,917.9 km
B*
-3.3501e-5
RAAN
156.3271°
Arg perigee
70.8257°
Mean anomaly
289.2880°
Rev number
24,720

§ Raw data

STARLINK-32091 49752U 21115AE  26145.05182084 -.00000821  00000+0 -33501-4 0  99912 49752  53.2136 156.3271 0001346  70.8257 289.2880 15.08834365247202

JSON: /api/v1/satellites/49752 · /tle

For live sub-satellite position, see the globe view (requires WebGL).

§ Visibility from observer

Set your observer location to see the next 7 days of passes ≥ 10°. The values pass through the URL so the page stays shareable.

No JS? Fill the form by hand. The geolocation button needs JavaScript.